sat.trackr.live / text

‹ back to catalog

TIANHUI 1-04

NORAD 49049 · 2021-067A

PAYLOAD ACTIVE UNKNOWN

§ Identity

Operator
Country
PRC
Launch date
2021-07-29
Launch site
JSC
Launch vehicle
Mass (kg)
RCS (m²)

External: N2YO · Heavens-Above · Gunter

§ Orbital elements

Epoch: 2026-09-20T23:04:12.976320Z

Period
94.53 min
Inclination
97.2674°
Eccentricity
0.0001859
Mean motion
15.23376414 rev/d
Perigee alt
494.4 km
Apogee alt
496.9 km
Semi-major
6,873.8 km
B*
1.2687e-4
RAAN
329.1244°
Arg perigee
157.0092°
Mean anomaly
203.1229°
Rev number
28,617

§ Raw data

TIANHUI 1-041 49049U 21067A   26263.96126130  .00002948  00000+0  12687-3 0  99982 49049  97.2674 329.1244 0001859 157.0092 203.1229 15.23376414286174

JSON: /api/v1/satellites/49049 · /tle

For live sub-satellite position, see the globe view (requires WebGL).

§ Visibility from observer

Set your observer location to see the next 7 days of passes ≥ 10°. The values pass through the URL so the page stays shareable.

No JS? Fill the form by hand. The geolocation button needs JavaScript.